Погода в Бикине

Погода в Бикине : погода сейчас, прогноз погоды и архив. Всё, что Вы хотите узнать о погоде в Бикине!

Хотите узнать прогноз погоды в Бикине? Тогда Вам сюда: Погода в Бикине

Поиск расширенной информации на нашем сайте:

Другие новости

Новости СМИ2

Главная страница сайта

Новости сайта

03.07.2017

Напоминаем, что на нашем специализированном сайте Метеоцентр.Азия вы можете получить высокодетализированные автоматические прогнозы погоды по пунктам России, СНГ и мира в авиационном формате (включающие направление и скорость ветра, видимость, явления погоды, количество и форму облачности, нижнюю и верхнюю границу облачности).


Погода в Бикине - сегодня

Время (UTC), дата Ветер
(°,м/с) 
Видим.   Явления Облачность Т
(°С)
Тd
(°С)
f(%) Тe
(°С)
Pmin
(гПа)
dP
(гПа)
Po
(мм)
O2
(г/м3)
Тmin Tmax R s Состояние
почвы
09 19.04.18 300 (СЗ) н/о    н/о 
+16 +6.7 54 +17  1008.1  2.3  750  284    +22.3       
12 19.04.18 350 (С) 10 км  дым{ливн. осадки}  10/0 верхняя 
[Ci fib]
+11.5 +6 69 +13  1011.5  3.3  753  290           
15 19.04.18 070 (В) 10 км  дым  10/0 верхняя 
[Ci fib]
+6.6 +4.3 85 +6  1012.8  1.1  753  296           
18 19.04.18 360 (С) 10 км  дым  10/0 верхняя 
[Ci fib]
+5.7 +3.4 85 +7  1013.4  0.6  754  297           
21 19.04.18 120 (ЮВ) 10 км  дым  10/0 верхняя 
[Ci fib]
+6.7 +4.8 88 +7  1014.5  1.1  755  296  +4.2        влажная 
00 20.04.18 130 (ЮВ) 10 км  дым  10/0 верхняя 
[Cc]
+10.3 +6.2 76 +9  1013.9  -0.5  754  292           
03 20.04.18 170 (Ю) 10 км  дым  10/4 600 м верхняя 
[Sc|Cc]
+16.7 +6.9 52 +17  1012.5  -1.2  753  285           
06 20.04.18 230 (ЮЗ) 3{12}  20000 м    4/0 верхняя 
[Cc]
+21.5 +4.5 33 +22  1009.3  -3  751  280           
12 20.04.18 260 (З) 2{11}  10 км    10/10 600 м 
[Sc]
+14.6 +7.6 63 +15  1008.5  0.8  750  286           
15 20.04.18 130 (ЮВ) 10 км  слаб. дождь  10/10 600 м 
[Sc]
+11.6 +8.7 82 +12  1006  -2.6  748  288           
18 20.04.18 тихо ()   10 км  слаб. дождь  10/10 600 м 
[Sc]
+10.6 +9 90 +11  1003.9  -2.1  747  288           
21 20.04.18 тихо ()   10 км  {дождь}  10/10 600 м 
[Sc]
+9.7 +8.3 91 +10  1004.2  0.2  747  289  +9.7      мокрая 
12 21.04.18 320 (СЗ) 1{11}  10 км    10/0 верхняя 
[Ci fib]
+9.1 -5.1 36 +10  1017.8  3.3  757  296           
15 21.04.18 320 (СЗ) 10 км    10/0 верхняя 
[Ci fib]
+6.2 -5.6 42 +7  1020.1  2.1  759  300           
18 21.04.18 360 (С) 10 км    8/0 верхняя 
[Ci fib]
+4.8 -5.2 48 +4  1022.6  2.4  761  302           
00 22.04.18 270 (З) 20000 м    3/0 верхняя 
[Ci fib]
+9 -3.1 42 +10  1025.4  1.3  763  298  +0.8         
06 22.04.18 330 (СЗ) 4{11}  20000 м    1/0 верхняя 
[Ci fib]
+14.4 -8 20 +14  1023.7  -1  762  292           
12 22.04.18 070 (В) 10 км  дым  3/0 верхняя 
[Ci fib]
+5.3 -5.4 46 +6  1024.9  1.2  762  302           
15 22.04.18 тихо ()   10 км  дым  ясно 
+1.3 -4.3 66 +1  1026.5  1.4  763  307           
18 22.04.18 тихо ()   10 км  дым  ясно 
-1 -4.1 79 -1  1026.5  0.1  763  309           
21 22.04.18 тихо ()   20000 м  дым  3/0 верхняя 
[Ci fib]
-0.5 -5 72 -1  1027.3  0.8  764  309  -2.3        замёрзшая 
00 23.04.18 тихо ()   10 км  дым  ясно 
+10.4 -2.6 40 +10  1026.8  0.1  764  297           
03 23.04.18 240 (ЮЗ) 10 км  дым  ясно 
+16.4 -7.6 19 +18  1024.7  -1.9  762  291           
06 23.04.18 020 (С) 20000 м  дым  1/0 верхняя 
[Ci fib]
+17.9 -6.1 19 +18  1021.5  -3.1  760  288           
12 23.04.18 тихо ()   10 км  дым  10/0 верхняя 
[Ci fib]
+7 -4.3 44 +7  1021.1  0.1  760  299           
Время (UTC), дата Ветер
(°,м/с) 
Видим.   Явления Облачность Т
(°С)
Тd
(°С)
f(%) Тe
(°С)
Pmin
(гПа)
dP
(гПа)
Po
(мм)
O2
(г/м3)
Тmin Tmax R s Состояние
почвы

Для получения пояснительной информации подведите курсор к названию столбца.

ПОГОДА в Бикине - архив

Всё, что Вы хотите узнать о погоде в Бикине - удобно и подробно!

Выберите нужную дату (начиная с 1 января 2015* года) и нажмите кнопку "Найти".
Будут отображены архивные сводки погоды по пункту Бикин, начиная с указанной даты.


Отображать данные в формате CSV (для использования в таблицах Excel)


Внимание! Наш архив погоды предназначен исключительно для личного некоммерческого использования в познавательных целях. Если Вам необходимы официальные справки о состоянии погоды (для производственных, юридических, коммерческих и т.п. целей), обращайтесь в органы Росгидромета.

*Примечание: данная дата относится к архиву по метеостанциям СССР (Россия, СНГ, Балтия).
Архив по метеостанциям Зарубежной Европы и Азии (кроме Китая) хранится 10 дней, по другим регионам земного шара (Китай, Африка, Америка, Австралия, Океания) - 1 день.

Бикин - район местоположения метеостанции


Название, широта, долгота, высота метеостанции:
Бикин 46.8°ш. 134.3°д. 68 м над ур. моря [Российская Федерация]

Дополнительная информация

В oтличие oт бoльшинства пoгoдных сайтoв мы публикуем пoдрoбную метеoинфoрмацию в детальнoм прoфессиoнальнoм фoрмате.

Характеристики температуры и влажнoсти вoздуха измеряются на высoте 2 м в тени вдали oт зданий и деревьев.
Скoрoсть ветра измеряется на высoте 10 м (на урoвне рoста челoвека скoрoсть ветра ниже в 1.5-2 раза). Если метеoстанция нахoдится в гoрoде или в лесу, тo скoрoсть ветра занижена на 2-4 м/с пo сравнению с oткрытым местoм. Скoрoсть ветра над акватoриями крупных рек и oзёр, а также на вершинах хoлмoв на 2-5 м/с выше, чем в oбычных услoвиях.
Атмoсфернoе давление в разных тoчках местнoсти мoжет значительнo oтличаться oт давления на метеoстанции, в зависимoсти oт услoвий рельефа (при пoдъёме на 10 м давление пoнижается примернo на 1 мм рт.ст.).